Wind_Speed
6 5 4 2 1 1 2 3 2 6 4 1 2 0 2 5 2 2 4 2 10 12 10 10 11 9 11 10 9 10 10 10 12 11 13 13 11 11 11 13 11 14 12 12 12 13 13 11 12
5 4 2 1 1 2 3 2 6 4 6 10 10 6 3 3 3 7 5 8 12 12 10 10 11 10 9 9 10 10 9 11 11 12 13 14 12 12 12 12 13 15 14 13 13 13 12 12 12
3 2 2 2 2 2 3 2 10 11 7 2 5 5 3 3 4 6 6 12 12 11 10 9 11 10 10 11 11 9 10 13 13 12 13 14 13 13 14 15 14 14 13 13 11 11 12 11 10
4 1 1 1 6 4 2 12 12 9 6 4 8 8 5 5 4 4 12 12 11 10 9 9 12 12 13 12 12 12 10 11 11 14 14 14 14 15 15 14 14 14 12 11 11 11 11 10 10
1 1 2 3 7 3 6 11 6 5 4 5 0 5 4 3 6 13 12 11 11 9 8 8 13 13 15 16 14 17 8 10 10 14 14 13 15 15 14 14 14 13 12 11 10 10 9 8 8
2 1 2 3 6 8 7 7 4 5 5 5 6 6 4 4 8 11 9 10 9 9 9 9 10 13 15 17 19 10 9 11 13 13 14 14 14 13 13 13 13 13 12 10 10 9 8 8 7
3 2 3 5 6 6 5 5 3 6 7 5 6 4 4 6 8 8 9 8 7 7 7 8 10 13 15 17 15 10 10 11 12 13 12 13 12 11 10 12 11 10 10 9 9 9 8 8 8
2 2 2 2 4 4 5 2 9 6 6 6 2 3 6 8 10 9 7 7 6 7 7 9 11 14 15 16 15 10 9 11 11 12 11 11 11 10 10 11 9 8 9 7 7 8 8 8 6
1 2 4 4 3 4 6 2 3 3 8 2 3 3 10 16 12 10 9 9 9 9 9 9 13 16 15 14 12 12 10 9 9 9 9 9 8 7 8 8 7 8 8 7 7 7 6 5 4
2 2 2 3 5 4 5 2 5 4 4 3 7 11 17 15 11 10 9 10 10 10 10 11 13 14 14 12 11 10 10 9 8 8 10 8 9 7 5 5 6 7 6 5 5 4 1 3 5
2 3 6 5 6 5 3 3 2 9 1 2 9 13 14 12 9 9 7 8 12 10 9 10 12 13 12 12 9 10 11 10 9 8 7 7 7 5 6 7 7 7 5 3 4 3 2 5 5
2 4 3 8 3 4 3 3 3 5 2 6 12 13 14 11 9 8 8 8 12 10 10 9 11 13 11 9 7 8 8 7 6 7 7 7 7 7 6 5 7 6 5 4 4 4 6 6 2
5 4 5 10 8 1 2 2 4 5 7 13 13 11 11 9 8 6 6 7 9 10 9 9 11 12 11 8 6 6 6 7 6 5 6 8 8 6 4 5 5 4 4 1 3 3 3 2 2
4 7 11 6 4 4 3 2 2 7 11 12 12 10 8 8 8 8 8 8 9 9 9 10 11 11 10 8 6 4 6 4 3 3 4 6 5 3 2 4 3 1 2 2 3 3 2 3 4
11 11 7 4 3 2 6 7 4 10 10 11 11 9 8 8 8 9 9 9 9 10 11 12 10 11 10 9 6 5 5 1 2 2 2 3 4 2 2 3 1 0 1 2 4 4 5 4 2
4 3 4 3 7 4 2 2 7 5 10 10 11 9 9 9 10 9 8 9 9 9 11 12 9 11 10 9 6 5 4 2 1 1 3 5 2 3 3 2 2 1 1 1 1 2 2 2 2
3 2 1 4 8 4 4 1 7 11 10 10 11 10 8 9 10 10 9 10 11 11 12 12 12 9 10 9 6 6 6 4 2 0 1 2 2 2 3 2 1 2 1 0 1 2 3 2 1
3 2 2 3 8 6 6 7 6 10 8 8 11 11 11 11 11 11 12 11 11 11 12 13 12 10 11 9 8 7 6 5 4 3 1 2 1 3 3 5 3 2 2 2 1 1 2 3 2
5 2 1 2 5 8 10 9 10 11 10 13 12 12 13 13 12 11 14 14 13 12 15 15 14 14 11 8 6 4 3 5 5 5 3 2 1 1 1 3 4 4 2 1 1 0 1 2 3
6 7 3 1 5 9 5 14 15 11 13 14 16 14 13 13 11 14 15 16 17 16 15 19 17 15 12 9 9 5 5 5 4 6 4 4 2 1 0 5 3 3 2 0 1 1 1 2 1
10 9 5 1 6 5 2 6 9 7 10 9 12 15 13 15 15 14 18 19 18 19 19 19 21 19 15 12 10 9 7 6 6 7 7 5 4 2 2 3 6 3 2 2 2 2 2 2 2
12 5 7 11 7 0 3 4 2 7 8 13 14 14 16 13 14 14 20 21 22 22 17 19 20 20 18 16 11 10 10 8 5 5 4 5 3 3 3 2 2 4 3 3 1 2 3 3 2
3 3 9 11 4 2 4 3 1 2 9 15 16 17 17 19 19 15 16 24 25 19 19 18 19 20 19 18 17 11 9 7 6 5 5 6 4 4 2 2 1 3 4 2 1 2 2 2 1
13 12 8 4 1 3 1 3 4 3 2 1 8 17 18 17 17 18 21 20 21 19 18 18 18 21 20 19 18 18 14 11 9 7 6 6 4 5 4 4 2 2 3 1 0 2 2 2 1
5 5 2 4 4 4 1 4 7 3 5 4 5 6 16 16 15 16 17 24 25 23 23 21 20 20 22 20 17 18 17 15 10 8 7 6 6 6 6 6 6 5 4 4 2 2 1 3 2
9 6 4 7 7 6 3 5 2 1 3 5 5 5 5 14 17 18 19 23 24 25 24 23 21 21 20 20 20 20 18 14 11 10 9 6 8 7 6 6 6 6 6 4 3 4 1 2 1
6 5 2 3 1 4 2 4 9 7 8 5 4 4 6 11 15 21 22 24 25 24 27 27 25 23 21 20 20 20 19 17 14 14 12 8 7 9 8 8 9 9 8 7 8 4 4 3 2
3 8 3 2 5 8 4 4 4 6 8 6 5 6 3 4 9 14 20 23 24 25 27 26 25 25 26 21 19 20 20 19 16 14 12 11 8 9 10 9 8 7 9 10 7 7 10 5 4
4 3 4 3 2 6 7 4 3 5 2 3 4 3 6 6 7 12 17 24 27 18 21 23 24 24 22 22 21 19 20 18 17 15 14 12 10 12 10 8 7 7 9 11 7 7 8 7 8
1 1 2 5 4 2 4 4 1 2 3 2 5 4 4 8 9 10 17 20 23 22 21 23 24 24 24 22 21 21 19 18 16 15 15 14 14 12 11 11 11 9 8 9 7 6 5 7 8
Wind_Direction
152 163 151 190 184 111 87 79 101 123 124 74 99 132 94 43 12 46 95 88 136 146 141 139 139 140 133 119 122 123 127 134 136 134 131 126 127 122 113 110 108 103 106 106 103 100 96 100 100
165 146 139 199 84 123 107 99 119 63 109 112 99 102 60 72 52 108 120 122 129 135 139 142 145 142 135 125 126 116 123 124 120 124 131 124 120 109 112 107 104 102 101 103 98 102 103 102 105
147 216 264 91 94 92 123 88 116 123 124 122 110 67 62 47 79 119 119 132 131 132 136 144 144 132 127 121 124 119 122 119 115 126 121 116 115 105 95 87 89 92 90 89 93 97 98 96 95
188 167 150 71 85 69 99 132 125 120 101 59 117 91 93 40 115 119 132 131 133 130 133 145 136 135 129 123 115 117 111 126 122 125 114 113 104 89 85 85 83 86 94 99 101 103 96 96 93
95 218 91 120 71 84 125 131 129 88 88 104 213 119 91 58 109 129 132 129 130 125 123 132 128 125 122 117 111 102 111 120 129 114 112 101 91 88 86 83 82 90 93 97 98 97 102 98 91
106 62 118 147 107 102 118 137 119 87 110 120 119 110 79 103 129 133 125 126 129 126 128 122 123 121 117 108 108 102 121 125 119 113 106 96 92 89 87 86 83 86 85 84 93 103 104 103 94
87 70 125 123 136 102 113 138 95 102 99 101 136 97 104 131 136 135 128 125 119 121 127 133 131 125 124 121 111 115 118 122 117 107 103 97 95 92 93 89 80 79 81 77 77 86 94 100 95
93 87 70 25 130 98 16 97 116 87 75 116 172 144 157 154 142 131 126 123 123 131 128 138 140 130 130 132 128 124 109 109 104 106 108 108 103 102 93 81 79 83 75 77 92 97 105 99 100
130 97 145 147 75 82 23 116 92 66 128 93 32 103 125 138 139 129 129 123 120 128 135 120 128 133 131 130 127 123 114 109 113 105 101 100 104 98 87 88 80 88 90 100 102 107 115 132 143
45 65 72 21 103 9 5 157 146 126 136 82 99 102 127 140 147 142 144 138 137 132 138 134 131 129 135 129 120 115 122 118 117 104 102 104 105 96 79 82 91 86 87 103 119 116 116 216 201
59 70 131 117 74 6 341 138 190 131 275 155 154 143 144 148 150 144 139 141 150 139 140 141 137 143 144 140 116 115 114 116 108 99 103 110 112 99 105 89 95 83 72 142 137 116 108 107 78
54 74 112 130 28 9 30 342 124 125 40 121 136 152 151 154 161 154 150 146 151 152 146 145 145 151 155 142 123 127 115 120 103 94 94 105 123 123 118 112 93 78 67 119 137 147 150 115 123
78 117 77 120 147 294 308 95 39 141 113 121 133 153 163 158 162 157 157 151 156 159 157 158 160 161 161 151 136 126 116 110 101 87 77 119 124 130 123 123 105 88 63 157 161 190 217 137 269
113 119 111 128 116 21 52 275 290 146 138 136 146 160 172 173 177 166 170 172 170 165 165 168 171 164 157 161 143 133 128 100 93 76 89 106 130 134 114 124 117 103 63 200 221 230 274 326 324
121 111 116 116 104 120 147 263 167 145 157 155 161 171 180 194 191 210 183 185 184 171 165 171 171 173 163 166 167 166 157 150 33 76 105 123 121 159 138 120 119 253 303 246 235 276 329 346 2
109 125 161 132 174 149 182 184 143 165 158 175 174 185 198 199 205 222 207 196 194 184 175 178 173 179 179 177 180 188 190 241 155 42 40 166 80 53 155 138 175 270 9 230 163 310 350 349 330
30 96 127 158 196 149 210 59 156 178 190 186 186 201 201 211 207 221 210 207 200 194 184 183 188 191 195 199 200 203 209 205 194 123 77 172 291 140 166 188 231 331 349 218 95 338 11 3 352
135 139 208 243 193 210 204 246 174 188 187 196 204 204 212 213 216 207 213 207 208 192 193 192 194 204 212 207 201 200 199 208 212 237 180 208 244 234 288 241 238 309 273 322 49 77 51 72 82
120 140 272 249 178 199 228 251 230 200 216 208 205 210 222 221 210 208 208 207 205 202 199 209 212 205 203 196 199 210 212 208 219 187 185 197 241 249 262 200 217 233 246 286 29 162 151 64 78
265 286 283 80 170 208 242 251 247 223 223 216 205 209 213 218 213 208 209 210 208 207 207 213 216 210 210 203 208 215 208 209 195 193 205 206 210 246 274 192 199 209 183 128 77 66 112 90 110
248 252 198 280 156 208 285 265 238 224 223 230 211 223 221 216 210 215 212 211 213 212 207 212 215 214 219 220 217 221 207 215 220 214 216 202 217 200 150 187 195 216 153 120 126 57 68 76 97
273 270 190 148 166 141 229 318 273 223 241 223 221 208 219 222 222 217 216 213 212 217 209 208 212 212 220 222 223 221 204 206 219 208 191 198 205 180 125 121 182 185 157 109 110 58 57 62 54
297 154 157 158 146 184 176 254 186 214 238 239 222 217 213 218 223 212 215 216 217 212 210 204 210 213 216 216 215 221 233 224 221 208 201 207 196 196 168 136 137 153 150 142 95 70 43 357 40
133 108 101 91 116 239 111 252 277 199 234 227 231 225 214 216 219 221 219 219 218 212 212 206 201 207 212 213 217 217 232 226 217 219 216 206 192 199 210 210 217 183 164 209 140 68 27 349 28
186 184 211 225 213 278 93 199 263 238 223 252 266 234 221 213 216 214 208 209 210 208 208 210 204 208 215 213 213 221 232 236 227 227 221 208 214 208 209 220 231 232 234 259 232 248 352 346 180
201 239 239 260 237 261 140 226 237 173 219 261 256 245 212 219 217 218 214 207 212 208 204 207 209 210 212 212 219 222 226 232 238 230 222 239 230 200 206 221 225 234 238 250 258 246 241 262 280
158 205 27 161 92 249 188 263 263 233 239 213 241 229 266 248 225 220 213 211 210 201 204 206 211 218 211 215 218 219 228 227 233 235 234 241 246 214 218 235 234 234 231 232 237 254 281 292 231
233 130 174 182 233 247 210 260 251 220 218 209 238 250 286 285 230 227 219 214 211 210 204 207 212 214 216 214 218 222 220 225 230 234 235 238 236 225 230 238 247 252 236 232 247 264 264 241 274
151 183 68 115 271 266 255 241 230 241 195 233 251 253 300 289 250 228 223 216 217 213 206 209 208 212 214 209 210 212 215 224 230 229 239 250 253 243 234 229 249 254 242 236 231 251 269 255 265
293 28 230 247 194 234 302 252 41 264 281 262 276 290 308 297 288 245 226 222 218 215 207 208 207 208 211 209 205 209 216 223 226 227 237 248 258 259 246 249 250 241 238 241 241 256 269 283 277
Height
779 779 779 780 791 784 799 796 784 792 793 789 788 793 797 801 802 812 808 810 811 815 817 820 822 823 825 827 828 828 829 830 831 831 832 833 834 834 835 836 836 838 839 840 842 842 843 843 843
779 780 780 780 793 798 802 786 791 791 792 789 790 795 799 806 803 807 809 811 814 816 818 820 822 824 825 827 829 830 831 832 833 833 833 834 835 836 837 838 839 839 841 842 843 843 843 844 845
778 779 780 787 794 799 800 789 790 792 789 790 796 795 800 807 807 808 810 813 816 817 818 820 823 824 826 828 830 830 832 834 834 834 835 835 836 838 839 841 841 841 843 843 845 845 845 846 847
778 779 780 791 798 790 789 787 787 791 791 791 794 804 804 808 807 810 812 814 816 818 820 821 823 825 827 829 831 832 834 835 836 835 836 837 838 840 841 843 842 843 844 844 845 845 846 847 848
777 777 788 795 795 786 783 783 785 791 793 796 796 806 807 809 810 811 813 815 817 819 821 823 824 827 829 830 831 832 836 835 836 837 838 840 840 842 843 843 844 845 844 845 846 846 846 847 847
779 781 795 800 796 787 785 784 786 793 795 798 801 803 810 811 811 813 815 817 819 820 822 824 826 829 830 831 832 833 837 837 837 837 839 841 842 844 844 845 845 845 846 846 845 845 846 847 848
783 788 800 795 798 795 792 782 787 793 796 800 799 807 810 812 813 814 816 817 819 821 822 825 826 830 832 833 831 837 837 838 838 839 839 842 843 844 845 845 846 847 847 847 846 846 846 848 849
783 787 800 798 799 806 792 786 786 789 800 796 798 805 810 810 814 815 817 818 820 821 824 825 827 831 833 836 837 838 839 839 840 840 842 843 844 845 845 845 847 846 847 847 846 845 846 847 848
781 794 804 802 803 803 791 793 788 790 796 797 799 800 803 811 815 816 818 820 821 823 825 826 828 831 835 836 837 838 839 839 840 841 842 844 845 845 846 846 846 845 846 846 846 845 845 846 846
785 797 802 797 798 800 794 793 791 795 797 803 804 806 808 812 815 817 818 819 822 824 826 828 829 832 835 836 837 837 839 840 841 842 843 844 845 845 846 846 846 846 846 846 845 845 845 845 845
787 799 799 800 799 798 797 794 788 796 801 798 803 807 809 813 815 817 819 821 822 825 827 828 830 832 835 836 838 838 839 840 841 843 844 845 845 845 846 846 846 846 846 845 845 845 846 845 846
792 793 794 800 803 802 799 794 793 794 797 794 801 807 808 812 816 817 819 822 824 826 828 829 830 832 835 836 838 839 840 841 843 843 844 845 846 845 846 847 847 846 846 845 845 845 845 843 840
793 796 795 797 802 799 797 797 799 798 797 797 804 809 810 811 815 818 820 823 825 827 829 830 831 832 835 837 838 839 840 842 843 844 844 845 846 846 847 847 847 846 846 846 846 845 845 846 846
793 793 797 800 802 801 803 798 798 796 797 800 804 808 812 813 815 819 821 823 825 827 830 831 833 834 836 838 839 839 841 843 843 844 845 846 846 847 847 848 847 847 846 846 846 846 847 847 846
791 800 798 802 804 805 803 805 801 797 798 802 803 808 811 814 814 817 820 823 824 826 829 832 834 835 837 839 840 841 842 843 844 845 846 846 846 847 848 848 848 847 846 846 847 847 848 847 847
797 797 808 804 801 803 806 810 804 801 800 803 804 807 810 812 813 816 819 822 824 826 828 832 835 836 837 839 840 840 842 843 844 845 845 846 848 847 848 849 848 848 847 846 848 848 849 849 848
803 810 808 808 798 802 809 807 801 801 799 802 802 805 809 810 813 815 818 822 824 826 827 831 834 837 839 839 840 840 841 842 843 844 845 847 848 848 849 849 849 848 848 848 849 849 848 848 848
809 809 808 805 800 802 806 806 803 799 803 807 801 804 805 808 809 813 816 820 823 826 828 830 834 837 839 840 840 840 841 842 843 844 845 847 848 848 848 848 849 849 849 849 850 850 849 849 849
793 798 803 798 794 801 802 802 799 798 800 801 804 804 805 802 807 812 815 818 821 824 826 829 832 835 837 839 840 840 841 842 843 843 845 846 847 848 848 848 848 848 848 849 850 849 849 850 849
791 796 801 799 795 800 800 800 790 793 795 797 798 800 801 800 804 808 812 815 817 821 824 826 830 833 836 839 839 840 840 841 842 843 845 846 847 847 847 847 847 848 849 849 849 849 848 849 849
787 793 799 798 800 799 803 800 792 790 792 794 795 793 795 795 797 800 806 810 813 816 820 823 827 831 834 837 839 839 840 840 841 842 844 845 845 846 846 846 847 848 849 849 850 849 849 850 849
790 781 787 795 800 811 801 812 793 789 791 791 789 791 791 791 793 795 799 804 808 810 817 820 824 829 832 835 838 838 838 839 841 841 843 844 845 846 846 846 846 848 849 850 850 850 849 849 849
787 780 785 791 796 803 809 814 787 794 791 783 784 783 785 785 787 792 796 798 801 809 812 817 821 826 829 832 835 837 837 837 838 841 843 844 844 845 845 846 847 848 849 849 849 850 850 849 848
778 787 792 796 801 812 803 804 787 787 781 779 775 777 779 781 784 788 792 796 799 804 809 813 817 821 824 828 831 833 836 836 836 838 840 842 843 844 845 846 847 848 848 848 849 849 849 848 847
780 783 804 811 811 809 806 809 785 775 776 776 774 774 774 777 781 783 786 788 792 798 803 809 812 817 820 824 828 830 833 835 835 837 839 840 841 843 844 845 846 847 847 847 848 848 848 848 847
780 778 798 825 818 802 809 806 780 773 773 771 772 771 773 774 774 776 780 785 789 792 798 803 807 812 816 820 823 827 830 832 834 835 837 838 839 840 842 843 844 846 846 845 846 847 847 846 847
785 789 780 800 814 809 796 790 772 770 772 772 770 772 770 769 769 770 774 779 782 787 791 796 801 805 811 816 820 824 827 829 832 833 835 836 836 838 839 841 842 844 844 844 844 844 846 846 846
771 778 792 795 819 819 801 802 785 775 771 772 773 770 769 768 767 768 769 773 778 781 785 790 796 801 805 811 816 820 823 826 829 831 832 833 835 836 838 839 839 839 840 841 843 843 844 845 845
780 781 792 787 798 800 805 794 768 767 768 771 770 770 768 767 766 766 767 769 773 779 784 787 791 796 802 806 810 816 820 823 825 827 829 831 832 834 835 836 837 838 838 838 841 841 842 842 843
781 784 780 786 803 802 798 787 770 769 770 770 769 769 767 764 763 763 764 767 771 775 779 784 788 792 796 801 805 809 816 819 822 824 826 827 829 831 832 834 834 835 835 835 837 839 838 840 841